Location: Doverdale
(52.2833°N, 2.2000°W)
Time: 03:21:25
(UTC+00:00)

FALCON 9 DEB - Pass Details

Date: 29 October 2020
Orbit: 383 x 397 km, 53.0° (Epoch: 24 November)

Event Time Altitude Azimuth Distance (km) Brightness Sun altitude
Rises 17:59:14 0° 240° (WSW) 2,307 8.2 -11.9°
Reaches altitude 10° 18:01:20 10° 235° (SW) 1,449 6.8 -12.2°
Maximum altitude 18:04:30 55° 157° (SSE) 489 3.2 -12.7°
Enters shadow 18:06:10 25° 88° (E) 864 4.0 -12.9°
